[[{"header":{"parameterUnit":"m.s-1","parameterCategory":1,"la1":30.2991,"la2":30.254,"lo1":-89.0895,"lo2":-89.0444,"dy":0.0017,"dx":0.0017,"nx":28,"ny":28,"refTime":"2024-05-02T09:00:00:Z","depth":0,"parameterNumber":2,"parameterNumberName":"U-component_of_WINDS"},"data":[0,0,0,0,0,0,0,0,0,0,0,0,0,0,0,0,0,0,0,0,0,0,0,0,0,0,0,0,0,0,0,0,0,0,0,0,0,0,0,0,0,0,0,0,0,0,0,0,0,0,0,0,0,0,0,0,0,0,-1.2141,-1.2141,0,-1.216,-1.216,-1.216,-1.2152,-1.2152,-1.2151,-1.2151,-1.217,-1.2171,-1.2172,0,0,0,0,0,0,0,0,0,0,0,0,0,-1.2097,-1.2098,-1.214,-1.2141,-1.2141,-1.216,-1.216,-1.216,-1.2152,-1.2152,-1.2151,-1.2151,-1.2169,-1.2171,-1.2172,0,0,0,0,0,0,0,0,0,0,0,0,0,-1.2116,-1.2098,-1.214,-1.2139,-1.2139,-1.216,-1.216,-1.216,-1.2152,-1.2152,-1.2151,-1.215,-1.2169,-1.217,-1.2172,-1.2194,0,0,-1.2176,-1.2177,0,0,0,0,0,0,0,0,-1.2115,-1.2118,-1.2139,-1.2139,-1.214,-1.2153,-1.2152,-1.2172,-1.2153,-1.2147,-1.2151,-1.215,-1.2165,-1.2166,-1.2171,-1.2195,-1.2196,-1.2176,-1.2177,-1.2178,-1.2178,0,0,0,0,0,0,0,-1.2114,-1.2117,-1.2148,-1.214,-1.214,-1.2138,-1.214,-1.2155,-1.216,-1.2148,-1.2147,-1.215,-1.2165,-1.217,-1.2172,-1.2196,-1.2176,-1.2177,-1.2178,-1.2179,-1.2241,-1.2242,0,0,0,0,0,0,-1.2112,-1.2116,-1.2147,-1.2149,-1.2125,-1.2139,-1.2141,-1.2149,-1.2159,-1.216,-1.215,-1.2149,-1.2168,-1.217,-1.2172,-1.2201,-1.2178,-1.2179,-1.218,-1.224,-1.2241,-1.2242,0,0,0,0,0,0,-1.2111,-1.2115,-1.2147,-1.2132,-1.2136,-1.2141,-1.215,-1.215,-1.2156,-1.2161,-1.2162,-1.2155,-1.2168,-1.2171,-1.2189,-1.2201,-1.218,-1.2181,-1.2239,-1.2241,-1.2242,-1.2256,0,0,0,0,0,0,-1.211,-1.2115,-1.2123,-1.2132,-1.2137,-1.2163,-1.215,-1.2151,-1.2158,-1.2157,-1.2166,-1.2167,-1.2167,-1.2187,-1.2191,-1.2203,-1.2182,-1.2238,-1.224,-1.2241,-1.2255,-1.2258,-1.2261,0,0,0,0,0,-1.2109,-1.2126,-1.2124,-1.2128,-1.2147,-1.2164,-1.2166,-1.2167,-1.2159,-1.2168,-1.2172,-1.2167,-1.2199,-1.2189,-1.2193,-1.2206,-1.2237,-1.2239,-1.2241,-1.2254,-1.2257,-1.2261,0,0,0,0,0,0,-1.2118,-1.2127,-1.2125,-1.2146,-1.2154,-1.2162,-1.2173,-1.217,-1.2181,-1.2179,-1.2179,-1.2181,-1.2201,-1.2205,-1.2194,-1.2229,-1.2217,-1.222,-1.2225,-1.2229,-1.2232,-1.2231,-1.2183,0,0,0,0,0,-1.2123,-1.2135,-1.2143,-1.216,-1.2165,-1.2169,-1.2176,-1.2175,-1.2184,-1.2187,-1.2192,-1.2201,-1.2213,-1.2221,-1.2233,-1.2255,-1.2258,-1.2266,-1.2269,-1.2271,-1.2274,-1.2287,-1.2292,-1.2248,-1.2248,-1.2248,0,0,-1.2132,-1.2139,-1.2146,-1.2162,-1.2169,-1.2183,-1.2171,-1.2186,-1.2196,-1.2189,-1.2208,-1.2212,-1.2222,-1.2243,-1.2252,-1.2247,-1.2286,-1.2274,-1.2275,-1.2277,-1.229,-1.2294,-1.2298,-1.2249,-1.2249,-1.2249,0,0,-1.2156,-1.2162,-1.2178,-1.2185,-1.2196,-1.2198,-1.2202,-1.2211,-1.2214,-1.2233,-1.2229,-1.224,-1.2261,-1.2269,-1.2275,-1.2304,-1.23,-1.2307,-1.2323,-1.2336,-1.2339,-1.2343,-1.2354,-1.2358,-1.231,-1.231,-1.231,0,-1.2166,-1.2187,-1.2187,-1.2202,-1.221,-1.2205,-1.2222,-1.2229,-1.2242,-1.2248,-1.2241,-1.2268,-1.2274,-1.2298,-1.2305,-1.231,-1.2315,-1.2307,-1.2339,-1.2342,-1.2345,-1.2356,-1.236,-1.2311,-1.2311,-1.2311,-1.231,0,-1.2199,-1.2214,-1.2225,-1.2239,-1.2248,-1.2264,-1.2267,-1.2276,-1.2275,-1.2279,-1.2299,-1.2306,-1.2319,-1.2325,-1.2324,-1.2349,-1.2345,-1.2339,-1.2327,-1.235,-1.236,-1.2364,-1.2312,-1.2312,-1.2311,-1.2311,0,0,-1.223,-1.2244,-1.2249,-1.2256,-1.2267,-1.2278,-1.2295,-1.2308,-1.2317,-1.2326,-1.234,-1.2359,-1.2354,-1.2361,-1.2361,-1.2372,-1.2396,-1.2365,-1.2365,-1.2371,-1.2426,-1.2431,-1.2436,-1.2394,-1.2394,-1.2395,-1.2425,0,-1.2256,-1.2284,-1.2286,-1.2312,-1.2326,-1.2322,-1.2336,-1.2345,-1.2349,-1.2361,-1.2365,-1.2379,-1.237,-1.2375,-1.2386,-1.2391,-1.2407,-1.2389,-1.2407,-1.2408,-1.2406,-1.2441,-1.2446,-1.2475,-1.2429,-1.243,-1.243,0,-1.229,-1.2301,-1.2329,-1.234,-1.2346,-1.2359,-1.2372,-1.2384,-1.2394,-1.2396,-1.2405,-1.2404,-1.2421,-1.2409,-1.2433,-1.242,-1.2428,-1.2431,-1.2432,-1.2435,-1.2421,-1.2445,-1.2484,-1.2488,-1.2437,-1.2436,-1.2436,0,-1.231,-1.2333,-1.2353,-1.2359,-1.2372,-1.2381,-1.2387,-1.2397,-1.2405,-1.2417,-1.2423,-1.2436,-1.2444,-1.2454,-1.2457,-1.2447,-1.2481,-1.2469,-1.2484,-1.2484,-1.2492,-1.2491,-1.2533,-1.2495,-1.2495,-1.2495,-1.2495,0,-1.234,-1.2357,-1.2363,-1.2375,-1.2395,-1.2396,-1.2416,-1.2421,-1.243,-1.2444,-1.2441,-1.2454,-1.2456,-1.2469,-1.2471,-1.2491,-1.2494,-1.2497,-1.2497,-1.2498,-1.2498,-1.2503,-1.2502,-1.2496,-1.2496,-1.2496,-1.2496,0,-1.2367,-1.2371,-1.2393,-1.2404,-1.2407,-1.2421,-1.243,-1.2443,-1.2446,-1.2464,-1.2468,-1.2474,-1.249,-1.2493,-1.2512,-1.2513,-1.2538,-1.2535,-1.2534,-1.2534,-1.255,-1.2549,-1.2597,-1.2604,-1.2561,-1.2561,-1.2562,0,-1.2385,-1.2399,-1.2412,-1.2421,-1.2428,-1.2442,-1.2452,-1.2454,-1.2464,-1.2477,-1.2488,-1.2504,-1.2516,-1.2542,-1.2548,-1.2562,-1.2561,-1.2577,-1.2563,-1.2564,-1.2563,-1.2562,-1.2564,-1.258,-1.2581,-1.2581,-1.2581,0,-1.2419,-1.2421,-1.2434,-1.2449,-1.2461,-1.2472,-1.2483,-1.2491,-1.2495,-1.2506,-1.2522,-1.2532,-1.2552,-1.2568,-1.2583,-1.2589,-1.2586,-1.2586,-1.259,-1.2591,-1.259,-1.2592,-1.2543,-1.2585,-1.2584,-1.2584,-1.2584,-1.2584,-1.2443,-1.2456,-1.2467,-1.2483,-1.2492,-1.2502,-1.2515,-1.2521,-1.2535,-1.2551,-1.2551,-1.257,-1.2581,-1.2601,-1.2608,-1.2622,-1.2617,-1.2623,-1.2625,-1.2627,-1.2629,-1.2587,-1.2625,-1.2625,-1.2625,-1.2624,-1.2624,0,-1.2478,-1.2485,-1.25,-1.2516,-1.2528,-1.2525,-1.2537,-1.2548,-1.2564,-1.2575,-1.2588,-1.2608,-1.2624,-1.2631,-1.2647,-1.2657,-1.2657,-1.2661,-1.2661,-1.2663,-1.2632,-1.2627,-1.2662,-1.2662,-1.2662,-1.2662,-1.2662,-1.2662,-1.2497,-1.2519,-1.2522,-1.2548,-1.2555,-1.2574,-1.2581,-1.2592,-1.26,-1.2623,-1.2636,-1.2641,-1.2651,-1.2667,-1.2682,-1.2684,-1.269,-1.2696,-1.2697,-1.2669,-1.2665,-1.2661,-1.2657,-1.2697,-1.2697,-1.2727,-1.2728,-1.2728]},{"header":{"parameterUnit":"m.s-1","parameterCategory":1,"la1":30.2991,"la2":30.254,"lo1":-89.0895,"lo2":-89.0444,"dy":0.0017,"dx":0.0017,"nx":28,"ny":28,"refTime":"2024-05-02T09:00:00:Z","depth":0,"parameterNumber":3,"parameterNumberName":"V-component_of_WINDS"},"data":[0,0,0,0,0,0,0,0,0,0,0,0,0,0,0,0,0,0,0,0,0,0,0,0,0,0,0,0,0,0,0,0,0,0,0,0,0,0,0,0,0,0,0,0,0,0,0,0,0,0,0,0,0,0,0,0,0,0,2.6333,2.6332,0,2.6319,2.6319,2.6319,2.6264,2.6263,2.6261,2.626,2.6248,2.6249,2.6249,0,0,0,0,0,0,0,0,0,0,0,0,0,2.6312,2.6312,2.6333,2.6332,2.6332,2.6319,2.6319,2.6319,2.6264,2.6263,2.6261,2.626,2.6247,2.6248,2.6249,0,0,0,0,0,0,0,0,0,0,0,0,0,2.6312,2.6313,2.6333,2.6303,2.6301,2.6319,2.6319,2.6319,2.6265,2.6263,2.6261,2.6259,2.6247,2.6248,2.625,2.6296,0,0,2.6254,2.6254,0,0,0,0,0,0,0,0,2.6312,2.6313,2.6308,2.6305,2.6302,2.6291,2.6307,2.6311,2.6265,2.6278,2.626,2.6258,2.6264,2.6264,2.6265,2.6295,2.6295,2.6254,2.6254,2.6255,2.6255,0,0,0,0,0,0,0,2.6312,2.6313,2.6327,2.6308,2.6304,2.6291,2.6289,2.6308,2.6282,2.6277,2.6273,2.6272,2.6262,2.6264,2.6265,2.6295,2.6254,2.6255,2.6256,2.6256,2.6361,2.6363,0,0,0,0,0,0,2.6316,2.6313,2.6328,2.6327,2.6303,2.6293,2.6291,2.6297,2.6282,2.6277,2.6274,2.627,2.6263,2.6263,2.6264,2.6316,2.6255,2.6256,2.6257,2.6359,2.6362,2.6364,0,0,0,0,0,0,2.6316,2.6318,2.6328,2.6319,2.6319,2.6296,2.6303,2.6298,2.63,2.6279,2.6274,2.6281,2.6262,2.6262,2.6288,2.6315,2.6257,2.6258,2.6357,2.636,2.6363,2.6421,0,0,0,0,0,0,2.6315,2.6318,2.6335,2.632,2.632,2.6352,2.6304,2.6299,2.6302,2.6296,2.6284,2.6281,2.626,2.6286,2.6289,2.6315,2.6259,2.6354,2.6358,2.6362,2.6417,2.6426,2.6434,0,0,0,0,0,2.6315,2.6352,2.6336,2.6338,2.6341,2.6354,2.6354,2.6329,2.6304,2.6321,2.6308,2.6281,2.6312,2.629,2.6292,2.6319,2.6352,2.6357,2.6361,2.6413,2.6424,2.6433,0,0,0,0,0,0,2.6372,2.635,2.6332,2.6365,2.6362,2.6345,2.6365,2.6342,2.6346,2.6341,2.631,2.6308,2.6338,2.6332,2.6307,2.6363,2.6328,2.6333,2.6366,2.6376,2.6384,2.6384,2.626,0,0,0,0,0,2.6388,2.64,2.6381,2.6413,2.6412,2.6389,2.6394,2.6375,2.6371,2.6369,2.6358,2.6354,2.6363,2.637,2.6377,2.6416,2.6412,2.6436,2.6445,2.6452,2.6456,2.6475,2.6485,2.6379,2.6379,2.6379,0,0,2.6422,2.6412,2.6421,2.6424,2.6419,2.6432,2.6388,2.6404,2.6414,2.6371,2.6394,2.6387,2.6381,2.6414,2.6427,2.6409,2.6485,2.6458,2.6463,2.6464,2.6481,2.6491,2.65,2.6382,2.6381,2.6381,0,0,2.649,2.6485,2.6509,2.6506,2.6499,2.6483,2.649,2.6476,2.6469,2.6492,2.646,2.6471,2.6488,2.6485,2.6485,2.6554,2.6528,2.6557,2.66,2.6619,2.6628,2.6635,2.6658,2.6667,2.6562,2.6562,2.6562,0,2.6534,2.6552,2.6526,2.6543,2.6545,2.6508,2.6533,2.653,2.6527,2.6529,2.6508,2.6528,2.6521,2.6552,2.6569,2.6571,2.6577,2.6557,2.6629,2.6636,2.6642,2.6663,2.6672,2.6565,2.6565,2.6565,2.6564,0,2.6604,2.6618,2.6639,2.6635,2.664,2.6662,2.6639,2.6646,2.6628,2.6615,2.6639,2.663,2.6634,2.6641,2.6624,2.6669,2.6658,2.6634,2.6597,2.6656,2.6676,2.6684,2.657,2.6569,2.6568,2.6567,0,0,2.6706,2.6688,2.6696,2.6694,2.6684,2.6694,2.6714,2.6718,2.6724,2.6724,2.6739,2.6754,2.6732,2.6733,2.6715,2.6732,2.6785,2.6706,2.6705,2.6719,2.6834,2.685,2.686,2.6769,2.6771,2.6772,2.6833,0,2.677,2.6802,2.6779,2.6815,2.6827,2.6792,2.681,2.6806,2.6794,2.6803,2.6791,2.6801,2.6772,2.6772,2.6788,2.6775,2.6807,2.6771,2.6782,2.6783,2.6782,2.687,2.6888,2.6946,2.6841,2.6842,2.6843,0,2.6848,2.6849,2.6886,2.6873,2.6878,2.6894,2.6895,2.6904,2.6899,2.689,2.6891,2.6869,2.6888,2.6854,2.6879,2.6855,2.6859,2.6854,2.6855,2.6853,2.6815,2.6869,2.6964,2.6972,2.6855,2.6854,2.6853,0,2.6916,2.6928,2.6951,2.695,2.6937,2.6948,2.6943,2.6937,2.694,2.6942,2.6944,2.6949,2.6951,2.6955,2.6935,2.6912,2.6962,2.6927,2.6954,2.6955,2.6965,2.6964,2.706,2.6971,2.6971,2.6971,2.6971,0,2.6988,2.7011,2.6981,2.6995,2.7021,2.6995,2.7021,2.7013,2.7007,2.7019,2.6991,2.7003,2.6976,2.6985,2.697,2.6993,2.6995,2.6987,2.6982,2.6988,2.6989,2.6989,2.6983,2.6973,2.6973,2.6972,2.6972,0,2.7067,2.7048,2.7071,2.7056,2.7053,2.7072,2.706,2.7072,2.706,2.7075,2.7078,2.7058,2.7068,2.7048,2.7056,2.7045,2.7077,2.7067,2.7078,2.7074,2.7102,2.7099,2.72,2.7211,2.7117,2.7118,2.7119,0,2.7113,2.713,2.7117,2.7123,2.7119,2.7129,2.7132,2.7108,2.7113,2.7109,2.7122,2.713,2.7134,2.7151,2.7137,2.7143,2.7131,2.7166,2.7132,2.7137,2.713,2.7128,2.7129,2.7173,2.7174,2.7175,2.7176,0,2.7196,2.7186,2.7191,2.7194,2.7199,2.72,2.7199,2.7206,2.718,2.7188,2.7197,2.72,2.7207,2.7215,2.7217,2.7212,2.7189,2.7187,2.7193,2.7198,2.7203,2.7199,2.7095,2.7184,2.7183,2.7183,2.7182,2.7182,2.7258,2.7272,2.7264,2.7272,2.7269,2.7268,2.7279,2.7268,2.7275,2.7278,2.7265,2.7277,2.7272,2.7272,2.727,2.728,2.7264,2.7274,2.7276,2.7278,2.7281,2.7204,2.728,2.728,2.728,2.728,2.7279,0,2.7338,2.7332,2.7339,2.7338,2.7344,2.7323,2.7321,2.7327,2.7338,2.7335,2.734,2.735,2.7358,2.7345,2.735,2.736,2.735,2.7362,2.736,2.7359,2.7296,2.7289,2.737,2.737,2.737,2.737,2.737,2.737,2.738,2.7401,2.739,2.7409,2.7403,2.7414,2.7415,2.7414,2.7412,2.7424,2.743,2.7422,2.7415,2.7419,2.7425,2.7421,2.7424,2.7439,2.7432,2.7373,2.7364,2.7355,2.7348,2.7441,2.7441,2.7494,2.7494,2.7494]}]]